Home   Weather   Dinuba   Past weeks
Flag for USA

Past Weather in Dinuba, California, USA — Yesterday and Last 2 Weeks

Now
74 °F

Sunny.


Feels Like: 77 °F
Forecast: 96 / 63 °F
Wind: 6 mph from South

Location: Visalia Municipal

Current Time: Jul 16, 2019 at 9:34:15 am

Latest Report: Jul 16, 2019 at 8:56 am


Visibility: 10 mi

Pressure: 29.90 "Hg

Humidity: 57%

Dew Point: 58 °F

Location of DinubaLocation

Past Weather in Dinuba — Graph

°F

Dinuba Temperature Yesterday

Maximum temperature yesterday: 98 °F (at 4:56 pm)
Minimum temperature yesterday: 62 °F (at 5:56 am)
Average temperature yesterday: 81 °F

High & Low Weather Summary for the Past Weeks

 TemperatureHumidityPressure
High101 °F (Jul 13, 3:56 pm)91% (Jul 13, 5:56 am)30.08 "Hg (Jul 13, 5:56 am)
Low57 °F (Jul 2, 5:56 am)15% (Jul 6, 6:56 pm)29.76 "Hg (Jul 13, 6:56 pm)
Average79 °F47%29.91 "Hg
* Reported Jul 1 7:56 am — Jul 16 7:56 am, Dinuba. Weather by CustomWeather, © 2019

Note: Actual official high and low records may vary slightly from our data, if they occured in-between our weather recording intervals... More about our weather records

Advertising

Dinuba Weather History for the Previous 24 Hours

Scroll right to see more
 ConditionsComfort  
Time TempWeatherWind HumidityBarometerVisibility
7:56 am
Tue, Jul 16
70 °FSunny.No wind64%29.90 "Hg10 mi
6:56 am66 °FSunny.No wind73%29.89 "Hg10 mi
5:56 am63 °FSunny.No wind81%29.88 "Hg10 mi
4:56 am64 °FClear.5 mph75%29.87 "Hg10 mi
3:56 am67 °FClear.No wind66%29.86 "Hg10 mi
2:56 am71 °FClear.7 mph55%29.85 "Hg10 mi
1:56 am74 °FClear.9 mph48%29.86 "Hg10 mi
12:56 am75 °FClear.10 mph50%29.88 "Hg10 mi
11:56 pm
Mon, Jul 15
77 °FClear.12 mph50%29.88 "Hg10 mi
10:56 pm79 °FClear.14 mph52%29.86 "Hg10 mi
9:56 pm82 °FClear.10 mph43%29.86 "Hg10 mi
8:56 pm85 °FClear.9 mph40%29.85 "Hg10 mi
7:56 pm90 °FSunny.10 mph34%29.84 "Hg10 mi
6:56 pm95 °FSunny.12 mph27%29.84 "Hg10 mi
5:56 pm97 °FSunny.13 mph25%29.85 "Hg10 mi
4:56 pm98 °FSunny.12 mph26%29.86 "Hg10 mi
3:56 pm96 °FSunny.8 mph27%29.89 "Hg10 mi
2:56 pm95 °FSunny.10 mph27%29.91 "Hg10 mi
1:56 pm93 °FSunny.13 mph29%29.94 "Hg10 mi
12:56 pm90 °FSunny.13 mph34%29.96 "Hg10 mi
11:56 am88 °FSunny.7 mph36%29.98 "Hg8 mi
10:56 am85 °FSunny.8 mph36%29.99 "Hg10 mi
9:56 am80 °FSunny.5 mph42%29.99 "Hg10 mi
Weather by CustomWeather, © 2019

See weather overview

LIVE PARTIAL LUNAR ECLIPSE – Watch the eclipse as it happens